GFSNE_con_mucape_114.txt.gz
CAPE
4 2 3 3 22 14 23 4 0 0 0 35 60 73 48 39 48 47 23 8 3 7 3 2 20 17 6 0 0 0 0 0 0 3 6 6 7 10
0 0 0 0 4 2 49 35 1 0 0 51 92 85 82 88 96 62 70 78 80 84 60 40 36 20 12 0 0 0 0 0 2 14 32 22 15 12
4 2 0 0 0 19 6 16 31 53 0 77 80 145 134 99 110 116 115 82 55 47 61 47 41 31 19 7 1 1 6 13 16 28 35 20 18 23
0 10 3 0 0 0 0 0 0 28 0 39 50 39 33 58 43 41 39 23 26 50 30 27 23 18 10 3 1 3 10 23 34 35 40 27 19 10
11 1 2 0 1 0 3 0 0 0 6 0 33 42 26 24 17 14 30 23 1 0 7 11 10 14 8 4 5 1 5 6 2 4 5 7 6 9
4 2 0 1 0 1 13 17 0 24 5 18 0 0 0 0 11 24 0 0 2 10 7 23 23 8 9 2 2 8 2 1 1 2 1 1 2 1
1 0 0 4 2 5 11 27 0 2 0 11 0 0 0 0 0 12 0 0 1 4 0 1 5 17 6 8 3 4 4 5 1 0 0 1 3 1
16 9 2 4 0 0 0 0 9 0 0 0 0 0 17 8 0 0 8 0 1 4 2 4 2 1 0 1 1 1 5 0 0 0 2 3 6 7
0 0 13 7 13 3 6 2 1 2 3 2 15 1 2 2 0 9 12 4 6 10 0 0 0 4 1 1 1 4 1 1 3 5 5 1 0 0
0 0 0 0 0 1 1 0 0 0 1 2 0 2 6 8 12 6 0 0 4 10 0 0 1 0 7 3 1 1 0 0 0 0 0 0 0 0
6 5 0 2 0 5 5 7 5 5 17 10 4 2 4 3 5 9 11 9 8 2 4 4 0 0 0 0 0 0 0 0 0 0 0 0 0 0
6 0 1 6 1 21 20 14 14 16 18 14 11 14 12 11 5 3 5 0 0 0 1 0 0 0 0 0 0 0 0 0 0 0 0 0 0 0
8 3 3 11 15 15 13 18 11 21 16 16 12 12 6 5 4 3 1 1 0 0 0 0 0 0 0 0 0 0 0 0 0 0 0 0 0 0
0 1 0 0 4 1 3 4 4 2 2 2 0 1 0 0 0 0 0 0 0 0 0 0 0 0 0 0 0 0 0 0 0 0 0 0 0 0
5 8 11 5 12 2 0 0 0 0 0 0 0 0 0 0 0 0 0 0 0 0 0 0 0 0 0 0 0 0 0 0 0 0 0 0 0 0
7 14 0 4 0 3 0 7 13 3 0 3 1 7 0 0 0 0 0 0 0 0 0 0 0 0 0 0 0 0 0 0 0 0 0 0 0 0
29 10 14 8 3 1 5 0 1 0 1 3 7 0 0 0 0 0 0 0 0 0 0 0 0 0 0 0 0 0 0 0 0 0 0 0 0 0
3 1 3 4 3 0 0 0 1 0 1 0 0 0 0 0 0 0 0 0 0 0 0 0 0 0 0 0 0 0 0 0 0 0 0 0 0 0
0 0 0 0 0 0 0 0 0 0 0 0 0 0 0 0 0 0 0 0 0 0 0 0 0 0 0 0 0 0 0 0 0 0 0 0 0 0
0 0 0 0 0 0 0 0 0 0 0 0 0 0 0 0 0 0 0 0 0 0 0 0 0 0 0 0 0 0 0 0 0 0 0 0 0 0
0 0 0 0 0 0 0 0 0 0 0 0 0 0 0 0 0 0 0 0 0 0 0 0 0 0 0 0 0 0 0 0 0 0 0 0 0 0
0 0 0 0 0 0 0 0 0 0 0 0 0 0 0 0 0 0 0 0 0 0 0 0 0 0 0 0 0 0 0 0 0 0 0 0 0 0
0 0 0 0 0 0 0 0 0 0 0 0 0 0 0 0 0 0 0 0 0 0 0 0 0 0 0 0 0 0 0 0 0 0 0 0 0 0

GFSNE_con_mucape_117.txt.gz
CAPE
0 9 18 13 3 3 18 53 3 2 1 0 6 61 61 56 36 33 19 22 14 7 3 1 3 0 14 55 62 35 30 18 21 0 0 2 5 13
15 4 8 10 5 9 6 8 63 16 0 16 19 71 52 55 68 96 64 38 27 31 33 41 52 41 42 50 35 31 22 8 3 0 0 3 9 29
0 17 0 0 3 2 0 13 10 34 0 0 59 95 106 93 68 86 81 77 76 116 99 101 81 64 54 32 28 31 19 15 16 14 15 22 33 26
4 0 0 0 0 0 0 1 0 0 0 0 69 83 72 74 51 49 52 74 77 89 63 59 44 41 31 34 13 22 16 5 7 10 8 9 1 9
1 3 8 9 3 0 0 0 0 0 0 0 0 65 55 57 39 21 38 37 21 17 11 26 19 12 1 11 24 20 17 15 11 7 9 15 2 5
2 6 8 8 18 3 1 0 0 0 0 18 0 9 41 15 28 0 0 26 0 4 7 0 17 15 5 20 10 5 6 8 8 8 9 4 1 0
22 9 18 13 13 2 2 0 0 0 0 12 69 0 0 10 0 0 0 0 0 0 1 1 22 21 10 1 4 5 2 2 11 3 1 2 0 0
4 23 16 2 0 0 0 13 13 0 13 2 0 0 0 0 0 0 0 3 0 0 3 1 1 5 3 5 0 6 4 3 6 3 3 2 4 1
3 1 18 6 4 0 3 17 0 0 5 0 0 4 0 13 0 0 0 1 0 23 29 3 1 1 6 0 3 0 1 0 1 1 3 0 0 0
0 2 3 10 14 1 2 0 0 0 0 0 1 4 1 0 0 0 1 0 3 20 3 0 1 2 3 1 1 0 1 0 0 0 0 0 0 0
0 0 0 5 0 0 1 1 2 2 1 3 1 0 3 0 0 1 3 0 1 1 7 0 0 0 3 1 0 0 0 0 0 0 0 0 0 0
2 1 0 6 13 1 0 0 0 0 3 2 0 1 12 18 6 15 16 13 8 2 2 0 0 0 0 0 0 0 0 0 0 0 0 0 0 0
2 0 6 0 6 11 14 15 13 11 23 25 18 9 7 0 5 10 14 0 0 0 1 0 0 0 0 0 0 0 0 0 0 0 0 0 0 0
6 4 4 3 9 16 18 14 15 13 1 2 2 6 8 5 3 0 1 1 0 0 0 0 0 0 0 0 0 0 0 0 0 0 0 0 0 0
0 0 2 3 5 8 8 4 2 0 0 0 0 0 0 0 0 1 0 0 0 0 0 0 0 0 0 0 0 0 0 0 0 0 0 0 0 0
5 6 6 5 4 3 9 9 2 12 1 0 6 3 0 1 0 2 2 0 0 0 0 0 0 0 0 0 0 0 0 0 0 0 0 0 0 0
0 2 2 0 0 2 6 8 5 3 4 4 7 4 0 1 3 0 0 0 0 0 0 0 0 0 0 0 0 0 0 0 0 0 0 0 0 0
0 0 2 3 1 3 4 3 3 7 6 1 0 0 0 0 0 0 0 0 0 0 0 0 0 0 0 0 0 0 0 0 0 0 0 0 0 0
0 0 1 0 6 1 0 0 0 0 0 0 0 0 0 0 0 0 0 0 0 0 0 0 0 0 0 0 0 0 0 0 0 0 0 0 0 0
0 0 0 0 0 0 0 0 0 0 0 0 0 0 0 0 0 0 0 0 0 0 0 0 0 0 0 0 0 0 0 0 0 0 0 0 0 0
0 0 0 0 0 0 0 0 0 0 0 0 0 0 0 0 0 0 0 0 0 0 0 0 0 0 0 0 0 0 0 0 0 0 0 0 0 0
0 0 0 0 0 0 0 0 0 0 0 0 0 0 0 0 0 0 0 0 0 0 0 0 0 0 0 0 0 0 0 0 0 0 0 0 0 0
0 0 0 0 0 0 0 0 0 0 0 0 0 0 0 0 0 0 0 0 0 0 0 0 0 0 0 0 0 0 0 0 0 0 0 0 0 0

GFSNE_con_mucape_123.txt.gz
CAPE
585 675 167 29 5 10 11 14 26 0 3 0 3 5 6 27 33 36 12 15 10 0 0 0 0 0 17 40 88 108 105 60 6 1 9 21 15 23
423 504 435 1 3 21 5 18 15 3 3 0 10 2 4 21 49 61 47 71 63 55 46 17 5 11 3 7 11 10 7 12 0 3 22 33 30 12
467 570 252 4 8 7 1 14 22 7 8 5 8 11 3 17 19 60 65 66 88 70 80 65 40 30 36 32 29 29 27 24 29 33 28 17 8 4
365 389 2 6 2 4 12 11 17 3 10 2 0 1 33 0 7 46 56 54 66 63 84 66 60 75 75 57 52 44 50 31 30 33 21 9 11 5
626 422 5 4 0 2 236 17 3 0 0 0 17 38 1 0 0 44 10 41 50 51 61 54 71 51 48 49 50 46 27 24 25 26 28 10 12 12
279 11 2 4 10 17 11 33 0 9 0 3 4 2 0 0 0 12 6 29 15 55 63 59 46 39 35 26 14 28 2 16 21 13 19 10 11 12
10 3 6 7 7 1 28 15 5 1 4 0 16 5 0 0 0 0 5 0 1 27 0 1 17 2 3 16 5 1 3 3 7 6 10 17 9 7
5 2 7 14 7 9 11 16 6 0 0 0 1 0 0 0 0 0 0 0 0 12 0 0 8 0 0 1 1 6 1 1 1 1 14 0 9 2
1 1 26 8 10 27 14 4 6 1 0 0 2 2 0 0 0 0 0 0 0 0 0 0 0 0 8 8 2 2 5 15 0 9 3 10 9 6
9 13 9 14 5 2 19 9 7 0 6 21 0 0 3 1 0 0 10 0 0 0 0 0 0 1 11 7 10 1 3 3 3 1 1 0 0 0
3 11 7 7 11 5 6 5 7 12 1 3 18 18 7 1 0 0 0 40 0 0 0 0 2 0 0 10 1 5 5 3 5 2 0 0 0 0
15 6 8 3 3 9 9 16 6 7 3 1 0 2 1 5 10 0 0 0 0 2 2 0 0 5 0 4 4 1 0 0 0 0 0 0 0 0
6 2 1 3 0 0 9 15 16 22 20 9 3 3 0 3 3 2 1 3 0 0 5 5 8 4 0 2 0 0 0 0 0 0 0 0 0 0
2 0 0 0 0 7 15 0 0 8 11 12 16 13 14 8 16 6 2 1 9 1 0 0 0 0 0 0 0 0 0 0 0 0 0 0 0 0
0 1 1 7 0 8 0 7 9 2 9 1 0 1 16 20 7 5 1 0 0 0 0 0 0 0 0 0 0 0 0 0 0 0 0 0 0 0
5 0 0 0 16 8 17 14 6 5 1 0 0 0 2 0 0 0 1 0 0 0 2 1 0 0 0 0 0 0 0 0 0 0 0 0 0 0
0 4 5 8 8 0 0 0 4 6 1 1 0 0 1 0 0 9 2 3 6 0 1 0 0 0 0 0 0 0 0 0 0 0 0 0 0 0
14 2 4 1 8 15 4 0 0 0 0 0 0 0 0 0 0 0 3 2 1 0 0 0 0 0 0 0 0 0 0 0 0 0 0 0 0 0
3 13 18 1 0 0 0 0 0 0 0 0 0 0 0 0 0 0 2 0 0 0 0 0 0 0 0 0 0 0 0 0 0 0 0 0 0 0
0 1 0 0 0 0 0 0 0 0 0 0 0 0 0 0 0 0 0 0 0 0 0 0 0 0 0 0 0 0 0 0 0 0 0 0 0 0
0 0 0 0 0 0 0 0 0 0 0 0 0 0 0 0 0 0 0 0 0 0 0 0 0 0 0 0 0 0 0 0 0 0 0 0 0 0
0 0 0 0 0 0 0 0 0 0 0 0 0 0 0 0 0 0 0 0 0 0 0 0 0 0 0 0 0 0 0 0 0 0 0 0 0 0
0 0 0 0 0 0 0 0 0 0 0 0 0 0 0 0 0 0 0 0 0 0 0 0 0 0 0 0 0 0 0 0 0 0 0 0 0 0

GFSNE_con_mucape_129.txt.gz
CAPE
570 866 554 468 79 165 442 491 35 133 37 9 1 1 2 5 15 5 13 2 49 33 20 21 23 16 4 7 7 20 33 80 91 58 71 88 44 9
387 387 426 152 191 135 341 200 84 55 48 0 5 4 0 0 6 4 4 44 60 48 34 19 18 29 16 6 11 22 35 63 96 97 69 28 12 7
534 410 19 8 162 212 275 131 34 18 33 30 14 3 3 0 0 4 36 11 52 50 29 19 19 5 8 21 49 97 109 131 96 35 8 0 11 20
687 425 6 24 119 325 189 167 39 35 7 4 3 0 1 0 2 12 2 0 39 35 51 38 30 24 5 0 2 30 41 31 27 29 33 21 26 8
524 237 25 28 63 371 200 130 173 48 2 3 1 3 1 4 7 15 1 3 3 1 42 51 44 48 66 52 58 63 86 88 90 81 59 64 28 15
209 84 56 38 50 247 235 120 78 98 9 16 8 0 2 2 0 2 0 1 1 5 31 45 58 61 70 80 77 87 105 77 69 65 75 46 7 1
127 98 125 77 179 114 169 157 215 150 3 11 18 4 1 0 1 0 2 5 0 0 0 0 14 35 64 69 78 56 69 64 39 31 12 1 0 1
94 112 80 100 97 104 174 49 44 5 0 2 8 3 0 4 9 5 3 0 0 1 0 0 1 29 44 59 63 29 40 8 8 1 0 0 4 1
69 48 65 112 100 42 149 160 55 0 12 2 0 0 0 3 11 2 4 1 0 0 0 0 0 23 9 1 13 6 1 1 0 0 0 0 2 1
26 18 50 61 99 31 76 25 3 9 8 5 4 4 7 0 10 1 0 0 0 0 0 0 0 0 2 1 0 0 8 10 3 1 0 9 6 5
43 66 79 9 136 47 115 8 8 21 17 7 6 12 1 2 2 1 0 0 0 0 0 0 0 0 0 0 0 13 13 6 1 1 0 2 4 2
46 75 44 135 22 56 1 0 8 14 9 1 4 13 18 9 12 1 0 0 0 0 1 0 0 0 0 0 0 1 1 1 1 1 0 1 1 0
10 126 18 49 14 16 2 33 34 21 16 9 10 19 4 8 6 5 0 0 0 0 0 0 0 0 0 0 0 0 0 0 0 3 1 0 0 0
71 27 83 8 3 1 37 10 21 41 28 33 16 17 12 2 6 2 6 2 4 5 16 1 1 1 0 0 0 5 2 0 0 0 0 0 0 0
50 5 19 4 0 16 19 29 10 28 28 9 5 20 30 17 8 8 7 3 6 3 4 12 11 7 5 3 0 0 0 0 0 0 0 0 0 0
40 7 5 4 0 7 35 27 27 6 4 2 16 24 7 3 16 10 14 1 5 2 3 1 1 0 0 0 0 0 0 0 0 0 0 0 0 0
0 0 0 0 0 14 11 5 10 5 2 10 12 7 1 19 15 2 0 14 4 4 1 0 0 0 0 0 0 0 0 0 0 0 0 0 0 0
0 0 1 0 0 7 1 15 16 15 3 2 9 2 11 10 1 3 2 1 2 0 0 1 0 0 0 0 0 0 0 0 0 0 0 0 0 0
0 0 0 0 0 0 0 2 9 6 1 3 5 0 0 0 0 0 0 0 0 0 0 0 0 0 0 0 0 0 0 0 0 0 0 0 0 0
0 0 0 0 0 0 0 1 4 5 3 0 0 1 0 0 0 0 0 0 0 0 0 0 0 0 0 0 0 0 0 0 0 0 0 0 0 0
0 0 0 0 0 0 0 0 0 0 0 2 0 0 0 0 0 0 0 0 0 0 0 0 0 0 0 0 0 0 0 0 0 0 0 0 0 0
0 0 0 0 0 0 0 0 0 0 0 0 0 0 0 0 0 0 0 0 0 0 0 0 0 0 0 0 0 0 0 0 0 0 0 0 0 0
0 0 0 0 0 0 0 0 0 0 0 0 0 0 0 0 0 0 0 0 0 0 0 0 0 0 0 0 0 0 0 0 0 0 0 0 0 0

GFSNE_con_mucape_132.txt.gz
CAPE
1163 1854 1821 1853 1703 1181 872 788 764 166 631 191 229 78 260 120 21 6 16 0 1 1 26 37 65 50 34 9 0 7 12 20 48 70 94 122 148 134
1117 1362 1947 1835 1367 1248 777 618 555 679 151 387 192 112 10 12 3 1 7 4 3 1 3 42 57 49 38 22 9 8 8 7 34 85 93 97 91 65
1251 1205 1013 1171 1208 1103 907 686 546 356 312 371 76 45 24 19 10 0 0 5 3 2 4 63 51 47 27 21 18 18 14 18 29 84 110 94 80 51
684 1285 1081 910 996 502 220 272 476 140 67 209 136 61 26 11 11 1 0 2 5 1 1 43 48 32 15 21 40 32 30 35 80 113 123 81 57 50
273 228 245 739 700 440 114 106 158 75 83 41 65 34 14 3 0 1 0 4 3 2 1 30 41 39 36 32 20 23 57 92 105 101 71 50 71 86
108 301 56 172 459 354 166 62 33 133 88 56 56 12 0 0 0 0 1 0 9 0 3 3 1 45 44 45 48 45 20 19 22 20 63 92 100 98
70 114 43 10 310 190 29 41 39 86 76 83 103 10 0 1 3 0 0 2 1 5 4 1 3 1 38 49 54 57 62 50 43 55 37 50 63 42
100 35 27 9 64 110 137 53 49 67 67 63 38 65 0 4 7 10 1 0 12 1 5 0 2 0 1 37 25 52 44 34 35 50 39 0 0 0
152 41 24 37 108 84 179 93 92 73 65 35 423 45 0 3 4 0 2 3 3 16 10 1 0 0 3 1 1 25 35 19 18 3 1 1 0 1
42 58 28 29 2 99 92 105 115 58 66 52 31 23 1 5 2 6 15 12 2 0 0 0 0 0 11 1 1 7 13 2 0 2 1 0 0 0
28 13 29 3 87 36 40 77 74 82 18 94 50 6 8 2 1 12 5 0 5 5 0 0 0 0 0 0 1 1 1 0 8 1 0 0 0 0
52 32 43 15 21 44 48 80 58 68 31 35 3 12 6 10 3 13 2 1 6 0 1 0 0 0 0 0 0 0 0 0 1 0 0 0 0 1
15 4 30 45 40 55 33 22 41 37 31 70 36 10 5 12 9 6 9 5 0 1 0 0 0 1 2 0 0 1 0 0 0 0 0 0 1 1
2 5 10 34 49 37 60 27 39 21 1 1 32 22 2 9 4 3 2 0 6 3 10 1 0 0 0 0 0 0 0 0 0 1 3 1 0 0
11 0 3 9 61 7 18 5 0 1 3 4 31 15 18 0 23 6 1 1 7 4 2 1 0 0 0 0 1 0 0 0 0 0 0 0 0 0
5 0 15 15 11 10 5 0 0 0 0 14 3 9 14 9 30 19 13 0 3 1 1 2 1 0 0 0 0 0 0 1 0 0 0 0 0 0
1 7 1 9 27 2 0 0 22 21 8 16 11 7 2 5 6 26 17 1 4 2 2 3 1 3 3 4 4 0 0 0 0 0 0 0 0 0
0 3 0 0 0 0 0 0 10 3 0 17 5 4 2 2 1 2 1 2 2 1 7 0 4 1 4 0 0 0 0 0 0 0 0 0 0 0
0 2 3 0 0 0 0 0 0 0 13 12 10 13 2 14 21 0 1 7 0 2 0 0 5 1 0 0 0 0 0 0 0 0 0 0 0 0
0 0 0 0 0 0 0 0 0 0 0 1 3 1 3 2 8 7 0 0 0 0 0 0 0 0 0 0 0 0 0 0 0 0 0 0 0 0
0 0 0 0 0 0 0 0 0 0 2 2 1 0 0 0 0 0 0 0 0 0 0 0 0 0 0 0 0 0 0 0 0 0 0 0 0 0
0 0 0 0 0 0 0 0 0 0 0 0 0 0 0 0 0 0 0 0 0 0 0 0 0 0 0 0 0 0 0 0 0 0 0 0 0 0
0 0 0 0 0 0 0 0 0 0 0 0 0 0 0 0 0 0 0 0 0 0 0 0 0 0 0 0 0 0 0 0 0 0 0 0 0 0

GFSNE_con_mucape_138.txt.gz
CAPE
58 209 504 291 495 358 168 132 39 6 83 332 329 454 354 201 163 71 49 19 11 0 0 5 33 33 20 15 35 54 59 42 34 8 10 0 24 42
210 280 332 404 532 784 746 855 556 242 104 255 381 366 317 215 140 82 56 28 27 2 0 1 10 21 36 30 35 48 56 68 64 26 12 0 8 57
474 383 421 647 762 745 786 808 892 825 571 490 409 412 285 161 146 80 53 13 7 3 2 0 0 8 41 53 34 2 53 57 53 42 19 23 19 48
789 876 857 742 640 608 630 776 967 836 703 579 465 479 177 125 102 67 1 4 1 4 1 0 2 0 30 14 61 4 42 56 54 36 21 8 26 39
262 358 362 480 493 496 367 523 681 730 719 487 431 504 368 84 66 23 7 22 3 0 2 1 0 4 17 29 25 54 34 35 47 41 13 16 24 42
0 0 1 135 214 86 316 455 317 215 429 365 260 286 410 226 52 69 8 29 35 3 0 0 0 5 22 38 22 7 3 35 38 35 27 32 27 50
0 0 0 0 6 34 105 31 56 38 194 208 124 164 120 129 82 42 52 61 60 3 0 9 0 5 17 18 10 4 7 1 32 43 38 50 51 101
0 0 0 0 0 4 13 88 51 92 176 56 12 17 53 142 120 142 130 89 55 19 0 0 0 0 10 3 9 5 8 0 4 19 49 56 65 86
0 0 0 0 0 0 6 10 62 54 66 54 32 23 26 41 45 166 124 45 59 73 11 0 1 2 4 1 10 7 5 2 43 39 40 48 61 78
0 0 0 0 0 0 0 14 31 18 28 46 46 29 33 225 171 176 109 64 66 62 17 0 4 0 1 10 18 4 5 3 42 18 19 19 36 44
0 0 0 0 0 0 2 6 21 55 18 14 23 40 18 49 80 139 171 71 27 68 2 0 6 8 2 1 12 10 5 6 8 9 9 5 1 51
0 0 0 0 3 4 15 34 31 25 61 2 24 37 25 39 103 68 94 37 97 42 20 42 20 11 0 10 14 9 4 2 5 1 1 1 1 1
0 0 0 0 3 10 9 24 46 13 8 27 27 37 66 66 62 67 68 71 61 38 20 4 9 9 8 0 13 1 9 0 3 1 6 0 1 4
0 0 0 0 2 11 9 27 28 25 72 53 26 47 94 78 63 22 23 32 6 17 17 35 5 1 1 0 7 3 0 1 6 0 1 4 1 0
0 0 0 0 1 4 14 15 1 8 31 19 51 14 27 130 70 65 29 25 34 25 27 29 18 8 1 0 2 10 1 11 4 3 0 0 0 0
0 0 0 0 0 7 5 10 4 5 1 5 6 17 54 23 51 42 56 6 14 0 18 9 11 9 13 1 6 1 0 0 0 0 0 0 0 0
0 0 0 0 0 0 2 3 4 4 5 3 8 29 39 8 1 11 20 13 0 0 0 6 4 1 12 5 2 10 2 1 0 0 0 0 0 0
0 0 0 0 0 0 0 0 0 0 0 0 2 0 24 33 0 2 0 0 0 0 0 0 5 0 2 0 2 5 0 0 0 0 0 0 0 0
0 0 0 0 0 0 0 0 0 0 2 0 0 0 10 5 0 0 7 0 0 0 0 0 8 0 8 0 0 3 0 0 0 1 0 0 0 0
0 0 0 0 0 0 0 0 0 0 0 0 0 0 0 0 0 0 0 0 0 0 0 0 1 1 0 0 17 1 1 0 0 0 0 0 0 0
0 0 0 0 0 0 0 0 0 0 0 0 0 0 0 1 0 0 0 0 0 0 0 0 0 0 0 0 2 0 0 0 0 0 0 0 0 0
0 0 0 0 0 0 0 0 0 0 0 0 0 0 0 0 0 0 0 0 0 0 0 0 0 0 0 0 0 0 0 0 0 0 0 0 0 0
0 0 0 0 0 0 0 0 0 0 0 0 0 0 0 0 0 0 0 0 0 0 0 0 0 0 0 0 0 0 0 0 0 0 0 0 0 0

GFSNE_con_mucape_141.txt.gz
CAPE
1237 925 700 659 637 489 383 276 39 0 1 42 95 92 177 202 239 204 173 91 59 20 2 1 6 7 22 22 24 25 19 29 53 63 50 51 52 54
950 705 686 628 315 370 349 218 100 11 0 18 78 253 256 247 302 317 253 125 66 44 4 1 0 1 15 39 38 27 7 8 49 57 56 50 68 74
247 455 275 124 76 203 354 417 316 249 33 32 122 195 262 350 386 304 207 97 86 61 30 16 1 0 5 33 62 43 42 3 23 58 56 64 65 98
446 544 550 400 399 325 491 616 583 559 423 127 139 337 404 338 258 185 164 112 88 48 4 0 1 1 0 26 51 48 27 17 8 30 45 72 47 50
380 461 655 674 627 539 553 490 455 449 448 174 121 153 287 392 391 248 76 104 65 51 3 4 0 2 0 7 23 46 49 18 3 3 39 61 54 27
444 483 652 661 378 335 270 124 161 182 182 244 156 141 208 282 355 203 70 76 81 60 13 20 0 0 3 6 0 42 53 27 9 16 25 9 37 37
227 277 289 76 1 0 0 4 11 37 50 35 12 9 15 166 106 11 69 118 56 47 55 11 17 1 0 0 0 18 25 42 5 5 3 29 7 23
29 7 0 0 0 0 0 0 0 2 8 27 16 12 3 24 78 31 63 47 53 51 50 71 57 16 1 0 0 2 20 39 25 4 0 22 41 34
0 0 1 0 0 0 0 0 2 7 7 13 31 26 10 10 202 40 39 39 22 96 54 98 57 41 10 0 0 7 14 18 15 8 3 4 21 40
0 0 0 0 0 0 0 0 0 0 0 3 17 21 13 14 43 33 19 27 34 36 58 154 39 42 45 0 0 0 7 28 20 12 9 3 27 37
0 0 0 0 0 0 0 0 0 0 0 0 2 34 43 38 48 43 31 13 30 38 26 102 18 68 16 0 1 0 10 12 3 10 7 8 11 42
0 0 0 0 0 0 0 0 0 3 3 0 0 2 39 49 49 52 36 13 16 24 19 60 26 50 21 12 0 3 0 0 7 9 3 2 2 6
0 0 0 0 0 0 0 2 1 0 3 1 3 11 27 38 42 48 69 3 27 4 36 46 40 13 6 8 6 0 0 4 8 4 6 4 2 6
0 0 0 0 0 0 0 0 1 1 0 20 14 24 33 25 30 33 59 38 5 62 4 44 62 12 0 3 9 23 12 15 6 2 3 13 3 1
0 0 0 0 0 0 0 0 5 10 9 5 26 34 36 61 3 3 41 39 5 27 10 41 4 44 20 16 21 5 8 1 6 0 0 0 0 1
0 0 0 0 0 0 0 0 0 3 2 6 17 26 7 1 20 24 15 49 17 71 0 5 34 33 24 5 3 0 15 3 0 10 1 0 2 2
0 0 0 0 0 0 0 0 0 0 0 6 4 8 7 4 1 14 21 9 12 18 2 6 17 5 8 5 1 0 11 1 11 3 2 1 1 3
0 0 0 0 0 0 0 0 0 0 0 0 4 3 0 1 0 4 13 25 10 2 0 26 16 16 13 0 2 3 8 4 2 5 1 2 0 0
0 0 0 0 0 0 0 0 0 0 0 0 0 0 0 0 0 1 0 0 11 3 3 0 0 1 0 0 0 1 0 20 4 1 1 4 1 0
0 0 0 0 0 0 0 0 0 0 0 0 0 0 0 0 1 0 7 0 0 4 1 0 0 0 1 0 0 0 0 0 0 0 0 1 0 0
0 0 0 0 0 0 0 0 0 0 0 0 0 0 0 0 1 7 1 3 0 2 0 0 0 0 0 0 0 0 0 0 0 0 0 0 0 0
0 0 0 0 0 0 0 0 0 0 0 0 0 0 0 0 0 0 0 0 0 0 0 0 0 0 0 0 0 0 0 0 0 0 0 0 0 0
0 0 0 0 0 0 0 0 0 0 0 0 0 0 0 0 0 0 0 0 0 0 0 0 0 0 0 0 0 0 0 0 0 0 0 0 0 0

GFSNE_con_mucape_147.txt.gz
CAPE
0 433 498 601 653 649 619 468 300 254 210 239 154 76 75 106 61 97 95 116 105 106 76 60 55 37 11 6 35 31 25 16 14 15 0 13 29 44
0 33 450 468 612 680 656 577 512 478 361 149 95 47 13 0 32 47 77 75 19 27 47 74 64 55 18 23 5 12 18 20 12 17 0 4 4 17
0 14 235 395 470 593 596 509 529 609 407 261 216 58 16 0 0 0 3 17 56 91 93 93 83 77 81 52 21 3 10 28 12 11 2 0 10 2
41 106 309 275 332 451 435 409 465 535 339 470 317 38 39 5 0 12 36 61 105 124 101 140 129 113 81 75 76 24 4 13 54 38 50 1 10 21
0 31 70 167 284 217 238 345 377 454 342 357 301 74 58 41 38 55 44 103 136 113 134 114 164 148 118 77 68 35 0 5 9 12 33 18 19 32
0 3 2 149 92 141 221 243 280 289 196 150 185 406 246 193 118 113 92 62 49 66 45 97 114 101 110 78 82 56 21 17 9 13 23 31 31 36
0 3 31 119 195 151 155 207 219 168 107 540 203 243 131 71 20 60 26 0 2 7 0 1 3 91 102 62 56 33 21 11 7 14 18 41 45 25
12 2 65 48 68 135 250 262 294 178 153 318 141 169 283 119 36 66 38 31 28 0 0 0 0 0 0 3 49 56 49 40 27 8 0 4 11 6
1 2 22 3 34 110 175 191 182 205 174 154 91 15 46 57 9 3 5 6 4 0 0 0 0 1 0 2 23 59 53 28 55 31 12 1 1 5
16 5 1 0 0 0 62 63 10 48 29 12 0 0 0 0 0 0 0 0 0 7 15 5 2 7 0 2 38 47 41 16 16 27 55 6 2 10
0 0 1 0 0 0 0 4 0 4 5 2 0 0 0 0 0 0 0 2 2 1 7 22 6 1 0 1 2 8 24 36 17 13 10 10 4 9
0 0 0 0 0 0 0 0 0 0 0 0 0 0 0 0 0 0 0 0 9 14 0 19 9 0 0 0 0 0 0 0 0 1 0 7 59 24
0 0 0 0 0 0 0 0 0 0 0 0 0 1 0 3 4 3 2 0 7 7 14 1 7 1 0 9 0 0 0 0 1 5 2 0 0 9
0 0 0 0 0 0 0 0 0 0 0 0 0 2 3 6 9 9 8 8 9 5 10 0 4 16 3 12 6 2 0 0 0 9 10 3 8 2
0 0 0 0 0 0 0 0 0 0 0 0 0 0 0 0 5 9 18 2 2 2 13 15 32 19 11 7 2 1 0 0 2 5 15 0 2 2
0 0 0 0 0 0 0 0 0 0 0 0 0 0 0 0 0 0 3 4 10 6 19 29 44 31 13 0 9 0 0 1 4 2 0 0 2 24
0 0 0 0 0 0 0 0 0 0 0 0 0 0 0 0 0 0 1 0 2 8 5 2 37 24 4 3 2 0 5 0 2 7 0 0 5 12
0 0 0 0 0 0 0 0 0 0 0 0 0 0 0 0 0 0 0 0 0 1 0 1 3 12 4 1 8 9 7 0 3 2 0 2 0 0
0 0 0 0 0 0 0 0 0 0 0 0 0 0 0 0 0 0 0 0 0 0 0 0 2 1 0 0 6 14 24 17 3 1 7 3 1 3
0 0 0 0 0 0 0 0 0 0 0 0 0 0 0 0 0 0 0 0 0 0 0 0 0 0 0 0 7 1 6 6 2 0 0 1 3 0
0 0 0 0 0 0 0 0 0 0 0 0 0 0 0 0 0 0 0 0 0 0 0 0 0 0 6 5 4 2 5 1 0 10 0 0 0 0
0 0 0 0 0 0 0 0 0 0 0 0 0 0 0 0 0 0 0 0 0 0 0 0 0 0 0 6 2 6 7 4 0 8 0 1 0 0
0 0 0 0 0 0 0 0 0 0 0 0 0 0 0 0 0 0 0 0 0 0 0 0 0 0 0 0 0 4 0 0 0 13 0 0 0 0

GFSNE_con_mucape_150.txt.gz
CAPE
78 43 0 0 1 237 211 197 211 131 204 181 161 225 223 219 247 200 148 77 92 121 109 114 107 73 64 78 96 88 70 49 57 50 43 23 17 26
140 45 0 8 48 104 203 197 235 221 140 172 163 153 148 144 115 103 117 45 30 101 107 90 98 101 91 61 64 83 89 72 50 26 19 19 24 2
102 97 13 3 0 199 310 237 226 258 189 195 191 227 178 207 24 0 16 21 46 51 85 20 38 43 63 68 88 77 52 50 39 38 28 18 14 2
10 15 1 0 0 0 125 169 173 184 217 176 206 220 201 90 49 7 0 0 0 4 66 117 126 124 147 130 92 92 55 48 14 10 16 18 13 6
12 22 44 44 24 60 225 234 174 159 188 162 139 225 253 211 59 50 4 0 4 28 72 101 92 56 86 115 97 71 87 77 57 10 9 15 33 8
17 15 37 41 53 55 233 178 171 186 93 160 170 237 242 186 94 67 23 12 23 36 73 84 43 28 38 61 97 91 87 83 72 59 4 11 12 20
25 31 28 34 44 104 44 6 0 165 85 133 194 199 178 114 94 139 82 46 27 28 11 19 16 21 47 14 7 63 96 64 76 73 36 3 8 7
19 55 65 57 42 21 20 15 84 123 94 119 122 142 149 66 114 124 93 54 11 0 2 0 0 3 0 0 0 0 51 87 90 65 54 46 15 20
17 30 13 29 16 13 43 35 36 17 43 41 134 139 117 141 128 85 78 28 6 0 0 0 0 0 0 0 0 0 0 0 34 28 50 43 55 42
0 25 25 37 16 26 15 1 0 5 12 77 98 75 25 114 5 12 56 6 6 1 2 0 0 0 0 0 0 0 0 0 5 41 56 52 13 11
0 0 0 3 39 23 3 4 0 2 11 16 7 7 67 22 1 11 0 0 0 0 0 0 0 0 0 0 0 0 0 0 12 35 60 58 25 17
0 0 0 0 0 0 0 0 9 0 0 0 4 0 0 0 0 0 3 1 0 0 0 0 0 0 0 0 0 0 0 0 0 3 0 18 12 6
0 0 0 0 0 0 0 0 0 0 0 0 0 0 0 0 0 0 0 0 0 0 0 0 4 10 9 4 0 0 0 0 0 5 0 0 1 1
0 0 0 0 0 0 0 0 0 0 0 0 0 0 0 0 0 0 0 0 1 1 1 1 0 0 12 7 3 5 0 0 0 0 0 0 1 0
0 0 0 0 0 0 0 0 0 0 0 0 0 0 0 0 0 4 0 3 4 3 5 6 6 1 9 3 0 0 0 0 0 0 0 0 0 0
0 0 0 0 0 0 0 0 0 0 0 0 0 0 0 0 0 0 0 3 5 6 10 3 5 8 4 4 2 0 11 1 3 0 10 0 0 2
0 0 0 0 0 0 0 0 0 0 0 0 0 0 0 0 0 0 0 0 0 0 1 6 12 13 4 0 0 2 12 5 2 1 2 0 0 0
0 0 0 0 0 0 0 0 0 0 0 0 0 0 0 0 0 0 0 0 0 0 0 0 1 4 7 4 13 7 8 5 14 25 2 0 0 0
0 0 0 0 0 0 0 0 0 0 0 0 0 0 0 0 0 0 0 0 0 0 0 0 0 0 0 0 0 3 9 8 5 6 1 0 2 1
0 0 0 0 0 0 0 0 0 0 0 0 0 0 0 0 0 0 0 0 0 0 0 0 0 0 0 0 0 0 0 0 0 2 12 20 1 3
0 0 0 0 0 0 0 0 0 0 0 0 0 0 0 0 0 0 0 0 0 0 0 0 0 0 0 0 0 0 0 0 0 0 0 2 18 9
0 0 0 0 0 0 0 0 0 0 0 0 0 0 0 0 0 0 0 0 0 0 0 0 0 0 0 0 0 0 0 0 3 6 10 15 8 7
0 0 0 0 0 0 0 0 0 0 0 0 0 0 0 0 0 0 0 0 0 0 0 0 0 0 0 0 0 0 0 0 0 0 2 0 0 0

GFSNE_con_mucape_156.txt.gz
CAPE
0 0 2 23 80 910 975 969 495 292 263 439 932 1263 1430 1475 1039 706 717 284 180 160 126 104 59 47 25 37 65 68 67 59 60 53 35 18 6 12
0 0 0 9 15 469 1123 808 683 497 321 247 644 957 1362 920 958 772 1165 385 218 174 170 118 76 78 48 29 26 48 77 89 65 47 24 26 29 16
0 0 0 0 25 26 838 966 840 766 277 114 28 514 1042 1190 974 1002 1079 916 325 192 227 222 113 108 97 51 39 41 39 79 83 59 45 34 28 15
0 0 0 0 12 24 61 102 553 633 468 310 360 317 334 997 1350 1582 933 625 725 305 250 208 163 128 61 30 39 48 40 42 27 44 37 39 26 27
0 0 0 0 0 31 44 47 158 131 492 554 300 317 404 519 939 1161 1178 812 813 562 374 201 138 100 55 20 26 44 53 50 38 36 27 30 41 32
0 0 1 0 0 0 13 25 24 24 1 193 138 364 199 265 370 416 1046 929 801 302 268 133 91 101 39 13 3 46 15 41 50 48 45 40 23 23
0 0 3 3 0 0 0 7 20 0 2 51 114 260 214 340 241 556 486 824 770 453 57 42 41 27 33 21 0 7 24 20 32 50 42 40 36 28
0 0 0 0 0 0 2 0 0 19 0 0 3 0 3 76 128 308 528 663 638 784 433 329 48 25 2 1 22 37 22 0 0 0 28 54 50 22
0 0 0 0 0 2 4 1 0 0 0 0 7 0 7 0 30 24 194 370 261 362 489 222 66 152 176 27 10 19 14 3 0 0 0 10 58 66
0 0 0 0 0 0 0 0 0 0 15 7 6 30 0 0 1 99 85 82 137 160 141 117 72 67 67 46 40 26 4 0 0 0 0 0 0 0
0 0 0 0 0 0 0 0 0 1 0 1 1 15 12 0 24 0 1 33 77 10 77 84 69 70 84 53 27 22 0 2 2 0 0 0 0 0
0 0 0 0 0 0 0 0 0 0 0 0 0 0 0 0 3 0 0 0 8 2 53 51 74 61 66 27 21 15 2 9 18 1 0 0 0 0
0 0 0 0 0 0 0 0 0 0 0 0 0 0 0 0 0 0 0 41 66 17 6 10 0 16 64 26 38 50 18 17 13 14 0 0 0 0
0 0 0 0 0 0 0 0 0 0 0 0 0 0 0 0 0 0 0 0 0 0 0 0 0 0 0 14 0 9 3 12 7 8 1 0 0 0
0 0 0 0 0 0 0 0 0 0 0 0 0 0 0 0 0 0 0 0 0 0 0 0 0 0 0 4 2 0 0 0 0 0 0 1 0 0
0 0 0 0 0 0 0 0 0 0 0 0 0 0 0 0 0 0 0 0 0 0 0 0 0 0 0 0 0 0 0 0 0 0 0 0 0 2
0 0 0 0 0 0 0 0 0 0 0 0 0 0 0 0 0 0 0 0 0 0 0 0 0 0 0 0 0 2 0 0 3 0 7 0 11 11
0 0 0 0 0 0 0 0 0 0 0 0 0 0 0 0 0 0 0 0 0 0 0 0 0 0 0 0 0 0 4 4 2 7 6 1 8 1
0 0 0 0 0 0 0 0 0 0 0 0 0 0 0 0 0 0 0 0 0 0 0 0 0 0 0 0 0 0 0 0 0 0 0 0 0 0
0 0 0 0 0 0 0 0 0 0 0 0 0 0 0 0 0 0 0 0 0 0 0 0 0 0 0 0 0 0 0 0 0 0 0 0 0 1
0 0 0 0 0 0 0 0 0 0 0 0 0 0 0 0 0 0 0 0 0 0 0 0 0 0 0 0 0 0 0 0 0 0 0 0 0 0
0 0 0 0 0 0 0 0 0 0 0 0 0 0 0 0 0 0 0 0 0 0 0 0 0 0 0 0 0 0 0 0 0 0 0 0 0 0
0 0 0 0 0 0 0 0 0 0 0 0 0 0 0 0 0 0 0 0 0 0 0 0 0 0 0 0 0 0 0 0 0 0 0 0 0 0

GFSNE_con_mucape_159.txt.gz
CAPE
0 0 0 0 0 0 14 53 70 240 321 116 4 1 84 284 663 722 712 591 419 417 302 222 117 66 146 199 151 96 89 66 60 52 33 9 0 0
0 0 0 0 0 0 0 1 21 367 462 510 385 186 360 285 401 607 1009 783 566 330 357 278 209 116 74 78 101 89 60 49 41 37 40 34 18 7
0 0 0 0 0 0 0 0 0 197 737 615 564 607 847 852 827 892 848 1130 870 448 371 290 236 156 76 75 71 48 59 57 43 42 29 44 37 7
0 0 0 0 0 0 0 0 14 28 31 214 560 562 578 413 407 385 439 847 1262 680 390 356 261 169 146 115 91 66 41 18 31 52 61 47 34 27
0 0 0 0 0 0 0 0 2 25 9 33 114 625 468 471 417 390 401 567 827 825 627 451 294 233 169 164 128 79 73 37 11 13 50 46 59 55
0 0 0 0 0 0 0 0 0 13 5 36 8 169 273 335 246 212 155 154 396 595 516 478 416 285 202 211 218 135 103 76 36 17 33 40 52 55
0 0 0 0 0 0 0 0 0 0 3 0 16 3 0 0 0 10 56 51 87 261 637 392 371 303 245 210 189 173 99 52 22 14 33 29 26 35
0 0 0 0 0 0 0 0 0 0 0 0 0 1 0 0 0 0 1 0 53 197 556 415 175 218 186 134 164 179 92 62 43 9 33 22 35 48
0 0 0 0 0 0 0 0 0 0 0 0 0 0 0 0 0 0 0 0 9 3 36 224 258 131 150 92 82 181 112 51 59 37 2 16 33 58
0 0 0 0 0 0 0 0 0 0 0 0 1 0 0 0 0 0 0 0 0 0 15 78 167 195 136 104 91 71 160 127 56 46 49 19 8 6
0 0 0 0 0 0 0 0 0 0 0 0 0 3 9 5 0 0 0 0 0 0 0 0 10 29 103 124 100 80 68 53 84 100 62 27 31 37
0 0 0 0 0 0 0 0 0 0 0 0 0 0 0 0 0 0 0 4 0 0 0 0 1 7 49 87 104 117 110 98 72 63 35 16 6 7
0 0 0 0 0 0 0 0 0 0 0 0 0 0 0 0 0 0 0 0 0 0 0 0 0 0 3 9 10 78 90 112 93 89 63 48 38 20
0 0 0 0 0 0 0 0 0 0 0 0 0 0 0 0 0 0 0 0 0 0 0 0 0 0 0 0 0 5 33 51 64 63 23 14 12 11
0 0 0 0 0 0 0 0 0 0 0 0 0 0 0 0 0 0 0 0 0 0 0 0 0 0 0 0 0 0 0 0 3 7 6 9 16 31
0 0 0 0 0 0 0 0 0 0 0 0 0 0 0 0 0 0 0 0 0 0 0 0 0 0 0 0 0 0 0 0 0 0 0 0 0 3
0 0 0 0 0 0 0 0 0 0 0 0 0 0 0 0 0 0 0 0 0 0 0 0 0 0 0 0 0 0 0 0 0 0 0 0 0 0
0 0 0 0 0 0 0 0 0 0 0 0 0 0 0 0 0 0 0 0 0 0 0 0 0 0 0 0 0 0 0 0 0 0 0 0 0 0
0 0 0 0 0 0 0 0 0 0 0 0 0 0 0 0 0 0 0 0 0 0 0 0 0 0 0 0 0 0 0 0 0 0 0 0 0 0
0 0 0 0 0 0 0 0 0 0 0 0 0 0 0 0 0 0 0 0 0 0 0 0 0 0 0 0 0 0 0 0 0 0 0 0 0 0
0 0 0 0 0 0 0 0 0 0 0 0 0 0 0 0 0 0 0 0 0 0 0 0 0 0 0 0 0 0 0 0 0 0 0 0 0 0
0 0 0 0 0 0 0 0 0 0 0 0 0 0 0 0 0 0 0 0 0 0 0 0 0 0 0 0 0 0 0 0 0 0 0 0 0 0
0 0 0 0 0 0 0 0 0 0 0 0 0 0 0 0 0 0 0 0 0 0 0 0 0 0 0 0 0 0 0 0 0 0 0 0 0 0

GFSNE_con_mucape_162.txt.gz
CAPE
0 0 0 0 0 0 0 0 0 0 0 0 9 57 75 30 20 7 15 137 91 292 240 173 155 157 249 204 145 186 132 84 50 31 17 10 8 0
0 0 0 0 0 0 0 0 0 0 0 15 0 42 39 41 26 14 22 0 23 113 283 248 216 171 128 200 250 168 106 67 52 41 33 27 17 2
0 0 0 0 0 0 0 0 0 0 0 0 12 42 35 98 253 204 150 20 5 154 344 256 322 255 185 144 125 193 163 116 61 43 35 25 33 33
0 0 0 0 0 0 0 0 0 0 0 0 1 1 110 113 136 180 175 299 496 446 380 459 420 370 378 238 171 74 136 108 101 64 25 16 19 29
0 0 0 0 0 1 4 0 0 0 0 0 8 12 47 39 52 26 52 81 69 103 83 150 348 300 327 246 290 189 106 68 78 86 51 19 21 21
0 0 0 0 0 0 0 0 0 0 0 0 3 19 29 15 21 0 0 0 2 45 22 35 6 26 59 292 229 268 210 142 112 108 70 34 26 31
0 0 0 0 0 0 0 0 0 0 0 0 1 1 9 6 8 0 0 0 0 0 3 16 11 39 0 171 279 277 271 228 167 166 130 94 61 33
0 0 0 0 0 0 0 0 0 0 0 0 0 0 0 0 0 0 0 0 0 0 0 0 0 0 0 0 48 249 300 305 229 211 212 165 141 97
0 0 0 0 0 0 0 0 0 0 0 0 0 0 0 0 0 0 0 0 0 0 0 0 0 1 5 6 20 158 266 288 295 281 258 198 205 142
0 0 0 0 0 0 0 0 0 0 0 0 0 0 0 1 0 0 0 0 0 0 0 0 0 2 0 6 57 50 85 163 277 329 293 245 208 120
0 0 0 0 0 0 0 0 0 0 0 0 0 0 0 0 0 0 0 0 0 0 0 0 0 0 0 0 2 34 96 94 96 125 216 219 178 147
0 0 0 0 0 0 0 0 0 0 0 0 0 0 0 0 0 0 0 0 0 0 0 0 0 0 0 0 0 0 48 73 117 75 75 143 159 125
0 0 0 0 0 0 0 0 0 0 0 0 0 0 0 0 0 0 0 0 0 0 0 0 0 0 0 0 0 0 0 4 67 78 78 38 97 108
0 0 0 0 0 0 0 0 0 0 0 0 0 0 0 0 0 0 0 0 0 0 0 0 0 0 0 0 0 0 0 0 1 11 38 68 77 98
0 0 0 0 0 0 0 0 0 0 0 0 0 0 0 0 0 0 0 0 0 0 0 0 0 0 0 0 0 1 0 0 0 0 4 17 57 54
0 0 0 0 0 0 0 0 0 0 0 0 0 0 0 0 0 0 0 0 0 0 0 0 0 0 0 0 0 0 0 0 0 0 1 0 0 0
0 0 0 0 0 0 0 0 0 0 0 0 0 0 0 0 0 0 0 0 0 0 0 0 0 0 0 0 0 0 0 0 0 0 0 0 0 0
0 0 0 0 0 0 0 0 0 0 0 0 0 0 0 0 0 0 0 0 0 0 0 0 0 0 0 0 0 0 0 0 0 0 0 0 0 0
0 0 0 0 0 0 0 0 0 0 0 0 0 0 0 0 0 0 0 0 0 0 0 0 0 0 0 0 0 0 0 0 0 0 0 0 0 0
0 0 0 0 0 0 0 0 0 0 0 0 0 0 0 0 0 0 0 0 0 0 0 0 0 0 0 0 0 0 0 0 0 0 0 0 0 0
0 0 0 0 0 0 0 0 0 0 0 0 0 0 0 0 0 0 0 0 0 0 0 0 0 0 0 0 0 0 0 0 0 0 0 0 0 0
0 0 0 0 0 0 0 0 0 0 0 0 0 0 0 0 0 0 0 0 0 0 0 0 0 0 0 0 0 0 0 0 0 0 0 0 0 0
0 0 0 0 0 0 0 0 0 0 0 0 0 0 0 0 0 0 0 0 0 0 0 0 0 0 0 0 0 0 0 0 0 0 0 0 0 0

GFSNE_con_mucape_165.txt.gz
CAPE
0 0 0 0 0 0 0 0 0 0 0 0 0 0 0 39 20 32 25 14 48 82 31 3 60 189 393 311 253 270 107 62 17 12 1 1 0 0
0 0 0 0 0 0 0 0 0 0 0 0 0 0 0 0 0 42 80 26 65 70 38 35 2 2 176 288 229 253 176 183 134 31 19 10 10 6
0 0 0 0 0 0 0 0 0 0 0 0 0 0 0 19 65 76 59 30 96 107 81 2 1 2 0 19 157 240 226 188 167 138 66 44 30 27
0 0 0 0 0 0 0 0 2 0 0 0 0 6 6 5 27 6 30 0 56 41 43 80 18 10 0 11 110 166 199 191 166 152 128 79 67 53
0 0 0 0 0 0 0 0 0 3 1 0 0 0 0 9 9 14 9 0 0 63 50 41 48 66 42 39 27 168 153 140 195 192 177 132 79 63
0 0 0 0 0 0 0 0 0 0 0 0 0 0 5 4 2 3 20 0 1 27 7 3 24 22 73 74 6 54 112 134 142 179 149 179 161 117
0 0 0 0 0 0 0 0 0 0 0 0 1 0 0 2 5 2 0 5 2 0 0 0 0 0 18 24 20 15 12 62 62 95 128 128 131 165
0 0 0 0 0 0 0 0 0 0 0 0 0 0 0 0 1 0 0 5 1 0 0 0 0 0 0 0 0 1 5 40 50 66 74 112 132 172
0 0 0 0 0 0 0 0 0 0 0 0 0 0 0 0 1 0 0 0 0 0 0 0 0 0 0 0 0 0 0 0 6 25 60 70 90 142
0 0 0 0 0 0 0 0 0 0 0 0 0 0 0 0 0 0 0 0 0 0 0 0 0 0 0 0 0 0 0 0 0 2 26 61 27 31
0 0 0 0 0 0 0 0 0 0 0 0 0 0 0 0 0 0 0 0 0 0 0 0 0 0 0 0 0 0 0 0 0 0 29 71 56 49
0 0 0 0 0 0 0 0 0 0 0 0 0 0 0 0 0 0 0 0 0 0 0 0 0 0 0 0 0 0 0 0 0 0 0 21 88 109
0 0 0 0 0 0 0 0 0 0 0 0 0 0 0 0 0 0 0 0 0 0 0 0 0 0 0 0 5 4 4 1 0 0 0 0 58 100
0 0 0 0 0 0 0 0 0 0 0 0 0 0 0 0 0 0 0 0 0 0 0 0 0 0 0 0 0 0 2 5 2 0 0 0 1 66
0 0 0 0 0 0 0 0 0 0 0 0 0 0 0 0 0 0 0 0 0 0 0 0 0 0 0 0 0 0 0 6 2 0 6 5 0 0
0 0 0 0 0 0 0 0 0 0 0 0 0 0 0 0 0 0 0 0 0 0 0 0 0 0 0 0 0 0 0 0 0 0 0 0 0 0
0 0 0 0 0 0 0 0 0 0 0 0 0 0 0 0 0 0 0 0 0 0 0 0 0 0 0 0 0 0 0 0 0 0 0 0 3 0
0 0 0 0 0 0 0 0 0 0 0 0 0 0 0 0 0 0 0 0 0 0 0 0 0 0 0 0 0 0 0 0 0 0 0 0 0 0
0 0 0 0 0 0 0 0 0 0 0 0 0 0 0 0 0 0 0 0 0 0 0 0 0 0 0 0 0 0 0 0 0 0 0 0 0 0
0 0 0 0 0 0 0 0 0 0 0 0 0 0 0 0 0 0 0 0 0 0 0 0 0 0 0 0 0 0 0 0 0 0 0 0 0 0
0 0 0 0 0 0 0 0 0 0 0 0 0 0 0 0 0 0 0 0 0 0 0 0 0 0 0 0 0 0 0 0 0 0 0 0 0 0
0 0 0 0 0 0 0 0 0 0 0 0 0 0 0 0 0 0 0 0 0 0 0 0 0 0 0 0 0 0 0 0 0 0 0 0 0 0
0 0 0 0 0 0 0 0 0 0 0 0 0 0 0 0 0 0 0 0 0 0 0 0 0 0 0 0 0 0 0 0 0 0 0 0 0 0